Hourly Data Report for September 01, 2020

GIMLI CLIMATE
MANITOBA
Current Station Operator: ECCC - MSC

50°38'00.000" N
97°03'00.000" W
230.10 m
5031042
71748
PGH

Download Data

Hourly Data (September 2020)
Hourly Data Report for September 1, 2020
TIME Temp Definition
°C
Dew Point Definition
°C
Rel Hum Definition
%
Wind Dir Definition
10's deg

Wind Spd Definition
km/h
Visibility Definition
km
Stn Press Definition
kPa
Hmdx Definition


Wind Chill Definition


Weather Definition


00:00 7.4 5.1 86 22 11   97.79     LegendNANA
01:00 6.6 4.7 88 24 7   97.74     LegendNANA
02:00 7.2 4.3 82 19 8   97.66     LegendNANA
03:00 5.6 3.6 87 20 7   97.59     LegendNANA
04:00 5.1 3.5 90 19 7   97.54     LegendNANA
05:00 4.8 3.4 91 19 9   97.46     LegendNANA
06:00 4.8 3.5 91 20 10   97.41     LegendNANA
07:00 6.9 4.9 87 20 10   97.32     LegendNANA
08:00 8.1 5.3 82 20 8   97.24     LegendNANA
09:00 10.0 5.8 75 18 15   97.15     LegendNANA
10:00 11.8 5.7 66 16 10   97.02     LegendNANA
11:00 13.6 6.9 64 13 8   96.86     LegendNANA
12:00 15.0 7.8 62 15 19   96.63     LegendNANA
13:00 14.6 8.5 67 17 29   96.57     LegendNANA
14:00 14.1 10.2 77 19 21   96.54     LegendNANA
15:00 15.0 10.6 75 22 18   96.51     LegendNANA
16:00 15.9 8.4 61 27 18   96.56     LegendNANA
17:00 16.6 8.5 59 27 20   96.59     LegendNANA
18:00 14.5 8.9 69 27 25   96.65     LegendNANA
19:00 14.7 9.0 69 28 23   96.73     LegendNANA
20:00 13.7 8.8 73 27 21   96.82     LegendNANA
21:00 13.3 9.2 76 27 16   96.87     LegendNANA
22:00 12.7 8.6 76 27 14   96.94     LegendNANA
23:00 12.1 8.3 78 27 18   97.00     LegendNANA

Notes on Data Quality.

Legend

  • E = Estimated
  • M = Missing
  • NA = Not Available*
  • [empty] = Indicates an unobserved value
Date modified: